EW7651 Weather Reports


time (UTC)temp
F
wind
direction
speed
knots
gust
knots
rain 1hr
in
rain 24hr
in
rain mn
in
humidity
%
barometer
mb
20260506203039 54 256 0.0 0.0 0.00 0.00 0.00 41 1010.3
20260506201538 54 250 0.0 0.0 0.00 0.00 0.00 40 1010.1
20260506200032 55 250 0.0 0.0 0.00 0.00 0.00 42 1010.0
20260506194526 55 250 0.0 0.0 0.00 0.00 0.00 45 1009.8
20260506193033 55 250 0.0 0.0 0.00 0.00 0.00 48 1009.7
20260506191518 55 250 0.0 0.0 0.00 0.00 0.00 52 1009.6
20260506190014 56 250 0.0 0.0 0.00 0.00 0.00 52 1009.4
20260506184511 56 250 0.0 0.0 0.00 0.00 0.00 52 1009.3
20260506183006 56 250 0.0 0.0 0.00 0.00 0.00 53 1009.1
20260506181504 56 250 0.0 0.0 0.00 0.00 0.00 53 1008.9
20260506180059 56 250 0.0 0.0 0.00 0.00 0.00 53 1008.7
20260506174556 56 250 0.0 0.0 0.00 0.00 0.00 54 1008.6
20260506173119 56 250 0.0 0.0 0.00 0.00 0.00 54 1008.4
20260506171548 57 252 0.0 0.0 0.00 0.00 0.00 54 1008.3
20260506164540 58 165 0.0 0.0 0.00 0.00 0.00 53 1008.1
20260506163045 59 157 0.0 0.0 0.00 0.00 0.00 53 1008.0
20260506161531 61 194 0.0 0.0 0.00 0.00 0.00 46 1007.9
20260506160028 61 153 0.0 0.0 0.00 0.00 0.00 46 1007.9
20260506154526 61 5 0.0 0.0 0.00 0.00 0.00 47 1007.8
20260506153024 62 281 0.0 0.0 0.00 0.00 0.00 47 1007.8
20260506151516 60 163 0.0 0.9 0.00 0.00 0.00 35 1007.8
20260506150016 60 112 0.0 0.0 0.00 0.00 0.00 38 1007.8
20260506144510 61 215 0.0 0.0 0.00 0.00 0.00 52 1007.7
20260506143011 62 147 0.0 0.0 0.00 0.00 0.00 52 1007.6
20260506141503 62 211 0.0 0.0 0.00 0.00 0.00 47 1007.7
20260506140059 61 331 0.0 0.0 0.00 0.00 0.00 43 1007.8
20260506134559 62 216 0.0 0.9 0.00 0.00 0.00 38 1007.7
20260506133114 61 218 0.0 0.0 0.00 0.00 0.00 31 1007.7
20260506131551 60 263 0.0 0.0 0.00 0.00 0.00 22 1007.7
20260506130045 59 179 0.0 0.0 0.00 0.00 0.00 19 1007.6
20260506124538 58 296 0.0 0.0 0.00 0.00 0.00 31 1007.6
20260506123034 59 227 0.0 0.0 0.00 0.00 0.00 38 1007.5
20260506121530 61 209 0.0 0.0 0.00 0.00 0.00 36 1007.5
20260506120026 60 162 0.0 0.0 0.00 0.00 0.00 20 1007.3
20260506114527 59 322 0.0 0.0 0.00 0.00 0.00 15 1007.3
20260506113019 59 108 0.0 0.0 0.00 0.00 0.00 22 1007.4
20260506111514 60 199 0.0 0.0 0.00 0.00 0.00 27 1007.3
20260506110010 60 250 0.0 0.0 0.00 0.00 0.00 25 1007.3
20260506104520 59 289 0.0 0.0 0.00 0.00 0.00 30 1007.3
20260506103006 59 282 0.0 0.0 0.00 0.00 0.00 22 1007.2
20260506101559 58 306 0.0 0.0 0.00 0.00 0.00 37 1007.3
20260506100055 59 245 0.0 0.0 0.00 0.00 0.00 43 1007.1
20260506094552 59 217 0.0 0.9 0.00 0.00 0.00 38 1007.1
20260506093047 59 243 0.0 0.0 0.00 0.00 0.00 22 1007.1
20260506091543 59 201 0.0 0.0 0.00 0.00 0.00 6 1007.2
20260506090045 58 85 0.0 0.0 0.00 0.00 0.00 1 1007.1
20260506084537 57 218 0.0 0.0 0.00 0.00 0.00 1 1007.0
20260506083039 55 196 0.0 0.0 0.00 0.00 0.00 1 1006.9
20260506081528 54 205 0.0 0.0 0.00 0.00 0.00 1 1006.9
20260506073017 52 145 0.0 0.0 0.00 0.00 0.00 1 1006.9
20260506071513 52 139 0.0 0.0 0.00 0.00 0.00 1 1006.9
20260506061600 51 92 0.0 0.9 0.00 0.00 0.00 1 1006.7
20260506043034 51 153 0.0 0.0 0.00 0.00 0.00 1 1006.7
20260506041528 51 196 0.0 0.9 0.00 0.00 0.00 1 1006.6
20260506040039 51 255 0.0 0.0 0.00 0.00 0.00 1 1006.6
20260506033016 51 196 0.0 0.0 0.00 0.00 0.00 1 1006.8
20260506031512 50 142 0.0 0.0 0.00 0.00 0.00 1 1006.8
20260506030008 50 224 0.0 0.0 0.00 0.00 0.00 1 1006.9
20260506023003 50 240 0.0 0.0 0.00 0.00 0.00 1 1007.1
20260506021605 50 231 0.0 0.0 0.00 0.00 0.00 1 1007.2
20260506020054 50 267 0.0 0.0 0.00 0.00 0.00 1 1007.2
20260506013046 50 216 0.0 0.0 0.00 0.00 0.00 1 1007.2
20260506011546 49 202 0.0 0.0 0.00 0.00 0.00 1 1007.3
20260506010046 49 196 0.0 0.0 0.00 0.00 0.00 1 1007.3
20260506003030 49 32 0.0 0.0 0.00 0.00 0.00 1 1007.7
20260506001526 49 196 0.0 0.0 0.00 0.00 0.00 1 1007.8
20260506000022 49 277 0.0 0.9 0.00 0.00 0.00 1 1007.8
20260505233015 49 281 0.0 0.0 0.00 0.00 0.00 1 1008.0
20260505231518 50 196 0.0 0.0 0.00 0.00 0.00 1 1008.0
20260505230007 50 197 0.0 0.0 0.00 0.00 0.00 1 1008.1
20260505223113 50 217 0.0 0.9 0.00 0.00 0.00 1 1008.2
20260505221600 50 328 0.0 0.0 0.00 0.00 0.00 1 1008.2
20260505220051 51 99 0.0 0.0 0.00 0.00 0.00 1 1008.2
20260505213044 51 214 0.0 0.0 0.00 0.00 0.00 1 1008.4
20260505211548 51 175 0.0 0.0 0.00 0.00 0.00 1 1008.4
20260505210038 52 207 0.0 0.0 0.00 0.00 0.00 1 1008.5